Miscellaneous Local Product
Issued by NWS North Platte, NE

Home | Current Version | Previous Version | Text Only | Print | Product List | Glossary On
Versions: 1 2 3 4 5 6 7 8 9 10 11 12 13 14 15 16 17 18 19 20 21 22 23 24 25 26 27 28 29 30 31 32 33 34 35 36 37 38 39 40 41 42 43 44 45 46 47 48 49 50
000
AXUS43 KLBF 031210
MISLBF


WESTERN AND NORTH CENTRAL NEBRASKA HOURLY WEATHER ROUNDUP
NATIONAL WEATHER SERVICE NORTH PLATTE NE
700 AM CDT MON AUG 03 2015

***STATIONS NOT REPORTING VARIABLES SUCH AS SKY/WEATHER OR
PRESSURE ARE PROVIDED BY THE NEBRASKA DEPARTMENT OF
ROADS...RAWS...AND APRS NETWORKS...AND ARE NOT UNDER
NATIONAL WEATHER SERVICE QUALITY CONTROL***

...OBSERVATIONS IN AND NEAR THE EASTERN PANHANDLE OF NEBRASKA...

CITY           SKY/WX    TMP DP  RH WIND       PRES   REMARKS
PINE RIDGE     PTCLDY    66  56  70 E8        30.01S
CHADRON        PTCLDY    56  54  93 SW6       30.00R
ALLIANCE       MOCLDY    59  57  93 E6        30.01R
SIDNEY         PTCLDY    56  53  90 W8        30.03R
BIG SPRINGS      N/A     63  59  87 CALM        N/A
$$

...OBSERVATIONS IN NORTH CENTRAL NEBRASKA...

CITY           SKY/WX    TMP DP  RH WIND       PRES   REMARKS
THEDFORD       PTCLDY    60  59  96 CALM      30.03R
AINSWORTH      PTCLDY    63  61  94 SE7       30.01F
O`NEILL        LGT RAIN  64  62  94 W5        30.05R
ORD            PTCLDY    61  59  93 NE3       29.97S
BROKEN BOW     MOCLDY    64  59  83 CALM      30.00R
SPRINGVIEW       N/A     62  60  95 CALM        N/A
CHAMBERS         N/A     63  60  88 N3          N/A
EWING            N/A     63  61  94 CALM        N/A
$$

...OBSERVATIONS IN SOUTHWEST NEBRASKA AND FAR NORTHEAST COLORADO...

CITY           SKY/WX    TMP DP  RH WIND       PRES   REMARKS
WRAY           FAIR      63  57  82 SW6       30.00S
HOLYOKE        FAIR      61  55  82 W5        30.00S
IMPERIAL       PTCLDY    61  55  81 SE6       30.00S
OGALLALA       PTCLDY    62  58  88 E6        30.01R
NORTH PLATTE   PTCLDY    59  57  93 E3        30.00R
MCCOOK         CLEAR     60  57  89 NE5       29.98R
LEXINGTON      PTCLDY    64  62  93 NE5       29.99R
PAXTON           N/A     58  55  90 CALM        N/A
BRADY            N/A     59  57  92 CALM        N/A
CALLAWAY         N/A     64  62  93 E9          N/A
$$

...NORTH PLATTE AREA...

CITY           SKY/WX    TMP DP  RH WIND       PRES   REMARKS
AIRPORT        PTCLDY    59  57  93 E3        30.00R
DOWNTOWN         N/A     64  60  87 CALM        N/A
SANDRIDGE        N/A     62  59  90 CALM        N/A
HILLCREST        N/A     62  60  94 E5          N/A
$$

...SOME WEATHER OBSERVATIONS FROM AROUND THE REGION...

CITY           SKY/WX    TMP DP  RH WIND       PRES   REMARKS
DENVER         CLOUDY    70  47  43 S13       30.09R
LARAMIE        CLOUDY    57  45  64 S6        30.21S
CHEYENNE       CLOUDY    60  49  66 W5        30.13S
SCOTTSBLUFF    MOCLDY    60  55  83 E5        30.00R
RAPID CITY     CLEAR     58  52  80 NE7       30.03R
PIERRE         CLEAR     58  53  84 CALM      29.98S
WINNER         FAIR      61  56  83 E3        29.99R
SIOUX FALLS    PTCLDY    58  56  93 CALM      29.98R
OMAHA          MOCLDY    67  64  90 N5        29.95S
GRAND ISLAND   PTCLDY    64  63  96 NE6       29.98R
KANSAS CITY    FAIR      69  65  86 S5        29.92R
WICHITA        MOCLDY    72  67  84 SE7       29.94R
HAYS           CLEAR     66  59  77 E5        29.94R
LIBERAL        CLOUDY    70  63  78 S5        29.96R
GOODLAND       MOCLDY    64  59  83 CALM      30.01R
$$



USA.gov is the U.S. government's official web portal to all federal, state and local government web resources and services.